Printer-friendly version

IAU Minor Planet Center

Minor Planet Center

MPEC 2000-F28: 2000 EA107

The following Minor Planet Electronic Circular may be linked-to from your own Web pages, but must not otherwise be redistributed electronically.


Read MPEC 2000-F27 Read MPEC 2000-F29


M.P.E.C. 2000-F28                                Issued 2000 Mar. 24, 23:57 UT

     The Minor Planet Electronic Circulars contain information on unusual
         minor planets and routine data on comets.  They are published
   on behalf of Commission 20 of the International Astronomical Union by the
          Minor Planet Center, Smithsonian Astrophysical Observatory,
                          Cambridge, MA 02138, U.S.A.

             Prepared using the Tamkin Foundation Computer Network

             BMARSDEN@CFA.HARVARD.EDU or GWILLIAMS@CFA.HARVARD.EDU
          URL http://cfa-www.harvard.edu/iau/mpc.html  ISSN 1523-6714

                                  2000 EA107

Observations:
     K00EA7A* C2000 03 15.17979 07 36 51.96 +77 05 52.3          16.0        704
     K00EA7A  C2000 03 15.19367 07 36 51.88 +77 05 23.9          17.0        704
     K00EA7A  C2000 03 15.20679 07 36 51.74 +77 04 59.5          16.8        704
     K00EA7A  C2000 03 15.21987 07 36 51.82 +77 04 33.3          16.8        704
     K00EA7A  C2000 03 15.23305 07 36 51.68 +77 04 06.6          16.8        704
     K00EA7A  C2000 03 16.80639 07 37 17.78 +76 13 10.4                      118
     K00EA7A  C2000 03 16.81506 07 37 17.82 +76 12 53.1                      118
     K00EA7A  C2000 03 16.81720 07 37 17.68 +76 12 48.9          16.9 R      118
     K00EA7A  C2000 03 17.12036 07 37 26.18 +76 03 00.6          18.2        704
     K00EA7A  C2000 03 17.13294 07 37 26.42 +76 02 37.8          18.3        704
     K00EA7A  C2000 03 17.14547 07 37 26.59 +76 02 11.7          18.6        704
     K00EA7A  C2000 03 17.15802 07 37 26.34 +76 01 48.6          18.3        704
     K00EA7A  C2000 03 17.17057 07 37 26.51 +76 01 23.2          18.5        704
     K00EA7A  C2000 03 17.21208 07 37 27.25 +76 00 03.5          17.7 V      651
     K00EA7A  C2000 03 17.21414 07 37 27.37 +75 59 59.1          17.8 V      651
     K00EA7A  C2000 03 17.21640 07 37 27.26 +75 59 54.8          17.6 V      651
     K00EA7A  C2000 03 17.90031 07 37 47.83 +75 37 42.5                      595
     K00EA7A IC2000 03 17.90726 07 37 48.39 +75 37 28.6                      595
     K00EA7A  C2000 03 17.91463 07 37 48.48 +75 37 12.3                      595
     K00EA7A  C2000 03 17.92116 07 37 48.64 +75 37 00.4                      595
     K00EA7A  C2000 03 17.92784 07 37 48.92 +75 36 47.8          18.5 V      595
     K00EA7A  C2000 03 18.77313 07 38 21.78 +75 09 26.2          17.4 R      046
     K00EA7A  C2000 03 18.77420 07 38 21.79 +75 09 24.0                      046
     K00EA7A  C2000 03 18.77537 07 38 21.93 +75 09 22.1                      046
     K00EA7A  C2000 03 18.77644 07 38 21.86 +75 09 20.4                      046
     K00EA7A  C2000 03 18.77747 07 38 21.97 +75 09 18.2          17.6 R      046
     K00EA7A  C2000 03 18.77848 07 38 21.87 +75 09 16.4                      046
     K00EA7A  C2000 03 20.25164 07 39 27.03 +74 21 27.6          18.5        719
     K00EA7A  C2000 03 20.26154 07 39 27.77 +74 21 11.4          18.5        719
     K00EA7A  C2000 03 21.77324 07 40 52.35 +73 32 11.9                      557
     K00EA7A  C2000 03 21.77487 07 40 52.56 +73 32 08.6                      557
     K00EA7A  C2000 03 21.77650 07 40 52.57 +73 32 05.2          18.4 V      557
     K00EA7A  C2000 03 21.85663 07 40 56.61 +73 29 29.0          17.8 R      046
     K00EA7A  C2000 03 21.85816 07 40 56.61 +73 29 26.3                      046
     K00EA7A  C2000 03 21.85914 07 40 56.66 +73 29 24.4                      046
     K00EA7A  C2000 03 21.86052 07 40 56.72 +73 29 21.5                      046
     K00EA7A IC2000 03 21.86897 07 40 57.22 +73 29 05.4                      595
     K00EA7A  C2000 03 21.87781 07 40 57.51 +73 28 48.3                      595
     K00EA7A  C2000 03 21.89994 07 40 58.56 +73 28 03.8          17.1 V      595
     K00EA7A  C2000 03 21.90622 07 40 58.92 +73 27 52.1                      595
     K00EA7A  C2000 03 22.82353 07 41 56.81 +72 58 09.9          17.5 R      046
     K00EA7A  C2000 03 22.82501 07 41 56.88 +72 58 07.4                      046
     K00EA7A  C2000 03 22.82600 07 41 56.92 +72 58 05.3                      046
     K00EA7A  C2000 03 22.82727 07 41 57.10 +72 58 03.1                      046
     K00EA7A  C2000 03 22.82828 07 41 57.07 +72 58 01.0          17.4 R      046
     K00EA7A  C2000 03 22.89569 07 42 00.90 +72 55 48.3                      557
     K00EA7A  C2000 03 22.90060 07 42 01.19 +72 55 38.5                      557
     K00EA7A  C2000 03 22.90223 07 42 01.29 +72 55 35.4          18.4 V      557
     K00EA7A  C2000 03 23.76669 07 43 00.25 +72 27 37.4                      557
     K00EA7A  C2000 03 23.76833 07 43 00.28 +72 27 34.0                      557
     K00EA7A  C2000 03 23.76997 07 43 00.36 +72 27 30.6                      557
     K00EA7A  C2000 03 23.77160 07 43 00.53 +72 27 27.4                      557

Observer details:
046 Klet.  Observers J. Ticha, M. Tichy, Z. Moravec.  0.57-m f/5.2 reflector
    + CCD.
118 Modra.  Observers A. Galad, S. Gajdos.  0.6-m f/5.5 reflector + CCD.
557 Ondrejov.  Observers L. Sarounova, M. Wolf.  0.65-m f/3.6 reflector + CCD.
595 Farra d'Isonzo.  Observers G. Lombardi, A. Toso, E. Pettarin.  0.40-m f/4.5
    reflector + CCD.
651 Grasslands Observatory, Tucson.  Observer J. E. McGaha.  0.62-m f/5.1
    reflector + CCD.
704 Lincoln Laboratory ETS, New Mexico.  Observers M. Blythe, F. Shelly,
    M. Bezpalko, M. Elowitz, R. Huber.  Measurers J. Stuart, H. Viggh,
    R. Sayer, J. B. Evans.  1.0-m f/2.15 reflector + CCD.
719 Etscorn Observatory.  Observer D. A. Klinglesmith III.  0.355-m
    Schmidt-Cassegrain + CCD.

Orbital elements:
2000 EA107
Epoch 2000 Mar. 17.0 TT = JDT 2451620.5                 Williams
M 183.91846              (2000.0)            P               Q
n   1.09973589     Peri.  278.04976     +0.77816962     +0.49830269
a   0.9295593      Node    52.96073     -0.18918832     +0.76639919
e   0.4564490      Incl.   28.61540     -0.59888215     +0.40537231
P   0.90           H   16.2           G   0.15
From 52 observations 2000 Mar. 15-23.

Ephemeris:
2000 EA107               a,e,i = 0.93, 0.46, 29                  q = 0.5053
Date    TT    R. A. (2000) Decl.     Delta      r     Elong.  Phase     V
2000 03 17    07 37.4    +76 06.8    0.795    1.353    97.6    46.8    18.1
2000 03 22    07 41.1    +73 24.8    0.815    1.351    96.0    47.2    18.2
2000 03 27    07 47.0    +70 42.9    0.835    1.347    94.2    47.6    18.2
2000 04 01    07 54.29   +68 01.4    0.855    1.341    92.3    48.1    18.3
2000 04 06    08 02.37   +65 20.2    0.874    1.333    90.4    48.6    18.4
2000 04 11    08 10.98   +62 39.5    0.892    1.324    88.4    49.2    18.4
2000 04 16    08 19.91   +59 59.1    0.910    1.312    86.4    49.8    18.4
2000 04 21    08 28.99   +57 18.9    0.927    1.299    84.4    50.4    18.5
2000 04 26    08 38.16   +54 38.5    0.943    1.283    82.3    51.0    18.5
2000 05 01    08 47.35   +51 57.7    0.958    1.266    80.2    51.6    18.5
2000 05 06    08 56.54   +49 16.2    0.971    1.247    78.1    52.3    18.5
2000 05 11    09 05.68   +46 33.8    0.983    1.226    75.9    53.0    18.6
2000 05 16    09 14.74   +43 50.2    0.993    1.203    73.8    53.8    18.6
2000 05 21    09 23.70   +41 05.0    1.001    1.178    71.6    54.6    18.5
2000 05 26    09 32.52   +38 17.9    1.006    1.151    69.5    55.5    18.5
2000 05 31    09 41.19   +35 28.4    1.010    1.122    67.3    56.5    18.5
2000 06 05    09 49.70   +32 36.1    1.010    1.091    65.2    57.6    18.5
2000 06 10    09 58.02   +29 40.6    1.008    1.057    63.0    58.8    18.5
2000 06 15    10 06.10   +26 41.4    1.003    1.022    60.8    60.2    18.4

Gareth V. Williams           (C) Copyright 2000 MPC           M.P.E.C. 2000-F28

Read MPEC 2000-F27 Read MPEC 2000-F29


Our Web policy. Index to the CBAT/MPC/ICQ pages.


Valid HTML 4.01!